Station PCOC1 - 9415144 - Port Chicago, CA Image indicating link to RSS feed of recent meteorological observations for station PCOC1


Conditions at PCOC1 as of
(6:48 am PDT)
1348 GMT on 04/20/2024:
     

Click on the graph icon in the table below to see a time series plot of the last five days of that observation.

5-day plot - Wind Direction Wind Direction (WDIR): SW ( 230 deg true )
5-day plot - Wind Speed Wind Speed (WSPD): 8.0 kts
5-day plot - Wind Gust Wind Gust (GST): 8.9 kts
5-day plot - Atmospheric Pressure Atmospheric Pressure (PRES):30.02 in
5-day plot - Wind Speed at 10 Meters Wind Speed at 10 meters (WSPD10M): 7.8 kts
5-day plot - Wind Speed at 20 Meters Wind Speed at 20 meters (WSPD20M): 7.8 kts
5-day plot -  Wind Speed, Wind Gust and Atmospheric Pressure Combined plot of Wind Speed, Gust, and Air Pressure
NOS Water Level Observation Network Water Level
Previous observations
TIME
(PDT)
5-day plot - Wind Direction
WDIR
 
5-day plot - Wind Speed
WSPD
kts
5-day plot - Wind Gust
GST
kts
5-day plot - Wave Height
WVHT
ft
5-day plot - Dominant Wave Period
DPD
sec
5-day plot - Average Wave Period
APD
sec
5-day plot - Mean Wave Direction
MWD
 
5-day plot - Atmospheric Pressure
PRES
in
5-day plot - Pressure Tendency
PTDY
in
5-day plot - Air Temperature
ATMP
°F
5-day plot - Water Temperature
WTMP
°F
5-day plot - Dew Point
DEWP
°F
5-day plot - Salinity
SAL
psu
5-day plot - Visibility
VIS
nmi
5-day plot - Tide (above MLLW)
TIDE
ft
2024-04-20 06:42 am SW 7.0 9.9----30.02-------
2024-04-20 06:36 am SW 8.0 12.0----30.01-------
2024-04-20 06:30 am SW 8.9 11.1----30.01- 51.1-----
2024-04-20 06:24 am SW 8.0 11.1----30.01- 51.1-----
2024-04-20 06:18 am SW 8.0 11.1----30.01- 51.3-----
2024-04-20 06:12 amWSW 11.1 13.0----30.01- 52.0-----
2024-04-20 06:06 amWSW 9.9 14.0----30.01- 52.3-----
2024-04-20 06:00 amWSW 12.0 15.9----30.00+0.04 52.2-----
2024-04-20 05:54 amWSW 11.1 15.0----30.00- 51.8-----
2024-04-20 05:48 amWSW 12.0 15.0----30.01- 51.6-----
2024-04-20 05:42 am SW 8.9 14.0----30.00- 51.6-----
2024-04-20 05:36 amWSW 11.1 19.0----30.00- 52.2-----
2024-04-20 05:30 amWSW 17.1 21.0----29.99- 52.7-----
2024-04-20 05:24 amWSW 18.1 22.0----29.99- 52.7-----
2024-04-20 05:12 am W 14.0 19.0----29.98- 52.5-----
2024-04-20 05:06 am W 14.0 19.0----29.98- 52.5-----
2024-04-20 05:00 am W 14.0 18.1----29.98+0.02 52.9-----
2024-04-20 04:54 am W 15.0 17.1----29.98- 52.9-----
2024-04-20 04:48 am W 12.0 15.9----29.98- 53.1-----
2024-04-20 04:42 amWSW 7.0 9.9----29.98- 51.8-----
2024-04-20 04:36 am SW 6.0 8.9----29.98- 50.9-----
2024-04-20 04:30 am SW 7.0 12.0----29.98- 51.3-----
2024-04-20 04:24 amWSW 8.9 13.0----29.97- 52.7-----
2024-04-20 04:18 am W 8.9 11.1----29.97- 52.7-----
2024-04-20 04:12 amWSW 7.0 11.1----29.97- 52.2-----
2024-04-20 04:06 am W 8.9 13.0----29.97- 52.9-----
2024-04-20 04:00 am W 9.9 13.0----29.97+0.01 52.7-----
2024-04-20 03:54 amWSW 11.1 13.0----29.98- 52.7-----
2024-04-20 03:48 am W 12.0 15.0----29.97- 52.9-----
2024-04-20 03:42 am W 14.0 15.9----29.97- 52.9-----
2024-04-20 03:36 am W 13.0 18.1----29.97- 52.9-----
2024-04-20 03:30 am W 13.0 19.0----29.97-------
2024-04-20 03:24 am W 14.0 19.0----29.96-------
2024-04-20 03:18 am W 15.9 18.1----29.96- 52.7-----
2024-04-20 03:12 am W 15.9 19.0----29.96- 52.9-----
2024-04-20 03:06 am W 13.0 18.1----29.96- 53.1-----
2024-04-20 03:00 am W 15.0 18.1----29.96+0.01------
2024-04-20 02:54 am W 15.0 19.0----29.96-------
2024-04-20 02:48 am W 15.9 19.0----29.96- 53.2-----
2024-04-20 02:42 am W 15.9 22.0----29.96- 53.4-----
2024-04-20 02:36 am W 17.1 22.0----29.96- 53.6-----
2024-04-20 02:30 am W 19.0 22.0----29.96- 53.8-----
2024-04-20 02:24 am W 17.1 22.0----29.95- 53.8-----
2024-04-20 02:18 am W 18.1 21.0----29.96- 54.1-----
2024-04-20 02:12 amWSW 17.1 20.0----29.96- 54.1-----
2024-04-20 02:06 amWSW 15.0 19.0----29.96- 54.3-----
2024-04-20 02:00 amWSW 17.1 19.0----29.96+0.01 54.1-----
2024-04-20 01:54 amWSW 14.0 18.1----29.96- 54.3-----
2024-04-20 01:48 am W 15.0 19.0----29.96- 54.3-----
2024-04-20 01:42 amWSW 14.0 19.0----29.96- 54.3-----
2024-04-20 01:36 amWSW 17.1 21.0----29.96- 54.3-----
2024-04-20 01:30 amWSW 15.9 19.0----29.96-------
2024-04-20 01:24 amWSW 12.0 15.9----29.96-------
2024-04-20 01:18 amWSW 11.1 15.0----29.96- 54.1-----
2024-04-20 01:12 amWSW 13.0 15.9----29.96- 54.5-----
2024-04-20 01:06 amWSW 13.0 15.9----29.96- 54.3-----
2024-04-20 01:00 am-------29.96+0.02------
2024-04-20 12:54 am-------29.96-------
2024-04-20 12:48 amWSW 15.0 17.1----29.96- 54.5-----
2024-04-20 12:42 amWSW 15.9 18.1----29.96- 54.9-----
2024-04-20 12:36 am W 15.9 19.0----29.96- 55.2-----
2024-04-20 12:30 am W 18.1 20.0----29.95- 55.2-----
2024-04-20 12:24 am W 15.9 18.1----29.95- 55.6-----
2024-04-20 12:12 am W 15.9 18.1----29.95- 55.6-----
2024-04-20 12:06 am W 17.1 19.0----29.95- 55.4-----
2024-04-20 12:00 am W 17.1 18.1----29.95+0.03 55.0-----
2024-04-19 11:42 pm W 14.0 17.1----29.95- 55.2-----
2024-04-19 11:36 pm W 15.0 18.1----29.95- 55.4-----
2024-04-19 11:30 pm W 15.9 19.0----29.95- 55.4-----
2024-04-19 11:24 pm W 17.1 20.0----29.95- 55.4-----
2024-04-19 11:18 pm W 19.0 21.0----29.94- 55.4-----
2024-04-19 11:12 pm W 17.1 20.0----29.94- 55.8-----
2024-04-19 11:06 pm W 19.0 20.0----29.95- 55.9-----
2024-04-19 11:00 pm W 15.0 18.1----29.95+0.03 56.1-----
2024-04-19 10:54 pm W 17.1 18.1----29.94- 56.1-----
2024-04-19 10:42 pm W 15.0 17.1----29.94- 56.3-----
2024-04-19 10:24 pm W 12.0 15.0----29.94- 57.4-----
2024-04-19 10:18 pm W 13.0 15.9----29.94- 57.6-----
2024-04-19 10:12 pm W 14.0 15.0----29.94- 57.4-----
2024-04-19 10:06 pm W 12.0 14.0----29.94- 57.6-----
2024-04-19 10:00 pm W 13.0 15.0----29.94+0.03 58.1-----
2024-04-19 09:54 pm W 11.1 13.0----29.94- 57.9-----
2024-04-19 09:48 pm W 11.1 12.0----29.94- 58.3-----
2024-04-19 09:42 pmWSW 9.9 12.0----29.94- 58.3-----
2024-04-19 09:30 pm W 11.1 13.0----29.94- 59.2-----
2024-04-19 09:24 pmWSW 8.9 9.9----29.94- 58.5-----
2024-04-19 09:18 pm SW 7.0 9.9----29.93- 57.6-----
2024-04-19 09:12 pm SW 8.0 9.9----29.93- 57.9-----
2024-04-19 09:06 pm SW 8.9 12.0----29.93- 58.1-----
2024-04-19 09:00 pm SW 11.1 12.0----29.92+0.02 59.2-----
2024-04-19 08:54 pmWSW 8.0 9.9----29.92- 58.8-----
2024-04-19 08:48 pmWSW 8.0 9.9----29.92- 58.8-----
2024-04-19 08:42 pmWSW 8.9 13.0----29.92- 59.2-----
2024-04-19 08:24 pm SW 8.0 9.9----29.92- 58.6-----
2024-04-19 08:18 pm SW 8.9 12.0----29.92- 58.8-----
2024-04-19 08:12 pm SW 9.9 12.0----29.91- 59.9-----
2024-04-19 08:06 pm SW 8.0 14.0----29.91- 60.1-----
2024-04-19 08:00 pmWSW 8.9 12.0----29.91+0.01 60.4-----
2024-04-19 07:48 pm SW 13.0 15.0----29.91- 61.2-----
2024-04-19 07:42 pm SW 8.0 11.1----29.91- 61.0-----
2024-04-19 07:36 pm SW 8.0 12.0----29.91- 61.2-----
2024-04-19 07:30 pm SW 8.9 12.0----29.91- 61.7-----
2024-04-19 07:24 pm SW 9.9 12.0----29.91- 62.1-----
2024-04-19 07:06 pmWSW 9.9 14.0----29.91- 63.1-----
2024-04-19 07:00 pm SW 12.0 14.0----29.91+0.00 63.3-----
2024-04-19 06:54 pmWSW 11.1 15.0----29.91- 63.5-----
2024-04-19 06:48 pmWSW 12.0 17.1----29.91- 63.9-----
2024-04-19 06:42 pm SW 14.0 17.1----29.91- 64.0-----
2024-04-19 06:36 pm SW 12.0 17.1----29.91- 64.4-----
2024-04-19 06:24 pmWSW 13.0 18.1----29.91- 64.4-----
2024-04-19 06:18 pmWSW 15.0 18.1----29.90- 64.8-----
2024-04-19 06:12 pmWSW 14.0 18.1----29.90- 64.9-----
2024-04-19 06:00 pmWSW 15.9 19.0----29.90-0.02 65.3-----
2024-04-19 05:30 pmWSW 14.0 17.1----29.90- 66.2-----
2024-04-19 05:24 pmWSW 13.0 15.9----29.90- 66.4-----
2024-04-19 05:18 pm SW 13.0 17.1----29.91- 66.7-----
2024-04-19 05:12 pmWSW 13.0 15.9----29.91- 66.6-----
2024-04-19 05:06 pmWSW 13.0 15.9----29.90- 66.6-----
2024-04-19 05:00 pmWSW 9.9 14.0----29.91-0.04 66.7-----
2024-04-19 04:54 pm W 14.0 15.9----29.91- 66.6-----
2024-04-19 04:48 pm W 12.0 17.1----29.91- 66.7-----
2024-04-19 04:42 pm W 13.0 15.9----29.91- 66.6-----
2024-04-19 04:36 pm W 13.0 17.1----29.90- 66.6-----
2024-04-19 04:30 pm W 15.0 17.1----29.90- 66.6-----
2024-04-19 04:18 pm W 12.0 15.0----29.91- 66.6-----
2024-04-19 04:12 pmWSW 11.1 15.0----29.91- 66.6-----
2024-04-19 04:06 pm W 13.0 15.0----29.91- 66.6-----
2024-04-19 04:00 pm W 13.0 15.0----29.91-0.04 66.6-----
2024-04-19 03:54 pm W 13.0 15.9----29.91- 66.6-----
2024-04-19 03:48 pm W 12.0 17.1----29.91- 66.4-----
2024-04-19 03:42 pmWSW 12.0 15.0----29.91- 66.0-----
2024-04-19 03:36 pmWSW 12.0 17.1----29.91- 66.0-----
2024-04-19 03:30 pm W 15.0 18.1----29.92- 65.8-----
2024-04-19 03:24 pmWSW 14.0 17.1----29.91- 65.7-----
2024-04-19 03:18 pmWSW 14.0 18.1----29.91- 65.3-----
2024-04-19 03:06 pmWSW 15.0 17.1----29.92- 64.8-----
2024-04-19 03:00 pmWSW 13.0 17.1----29.92-0.04 64.9-----
2024-04-19 02:54 pmWSW 12.0 15.9----29.93- 64.8-----
2024-04-19 02:48 pmWSW 13.0 17.1----29.93- 64.4-----
2024-04-19 02:42 pm W 14.0 17.1----29.93- 64.2-----
2024-04-19 02:36 pm W 14.0 17.1----29.93- 64.0-----
2024-04-19 02:30 pm W 13.0 15.9----29.93- 63.9-----
2024-04-19 02:24 pm W 14.0 17.1----29.93- 63.9-----
2024-04-19 02:18 pm W 15.9 18.1----29.94- 63.5-----
2024-04-19 02:12 pm W 14.0 18.1----29.94- 63.3-----
2024-04-19 02:06 pm W 15.0 19.0----29.94- 63.1-----
2024-04-19 02:00 pm W 15.0 19.0----29.94-0.03 63.0-----
2024-04-19 01:54 pm W 17.1 19.0----29.94- 62.8-----
2024-04-19 01:48 pm W 17.1 19.0----29.94- 62.6-----
2024-04-19 01:36 pm W 15.9 18.1----29.95- 62.6-----
2024-04-19 01:30 pm W 15.9 20.0----29.95- 62.8-----
2024-04-19 01:24 pm W 18.1 19.0----29.95- 62.1-----
2024-04-19 01:12 pm W 18.1 19.0----29.95- 61.7-----
2024-04-19 01:06 pm W 19.0 20.0----29.95- 61.3-----
2024-04-19 01:00 pm W 17.1 18.1----29.95-0.02 61.2-----
2024-04-19 12:54 pm W 15.9 17.1----29.95- 60.8-----
2024-04-19 12:48 pm W 15.9 19.0----29.95- 60.4-----
2024-04-19 12:42 pm W 17.1 19.0----29.95- 60.3-----
2024-04-19 12:30 pm W 18.1 19.0----29.96- 59.7-----
2024-04-19 12:24 pm W 17.1 19.0----29.96- 59.7-----
2024-04-19 12:18 pm W 18.1 19.0----29.96- 59.5-----
2024-04-19 12:12 pm W 18.1 19.0----29.96- 59.4-----
2024-04-19 12:00 pm W 17.1 18.1----29.96+0.00 59.0-----
2024-04-19 11:54 am W 15.0 18.1----29.96- 58.8-----
2024-04-19 11:48 am W 15.9 18.1----29.96- 58.8-----
2024-04-19 11:36 am W 15.9 18.1----29.97- 58.6-----
2024-04-19 11:30 am W 15.9 18.1----29.97- 58.3-----
2024-04-19 11:24 am W 15.9 17.1----29.97- 57.9-----
2024-04-19 11:18 am W 14.0 15.9----29.96- 57.6-----
2024-04-19 11:12 am W 14.0 15.9----29.97- 57.2-----
2024-04-19 11:06 am W 14.0 17.1----29.97- 57.0-----
2024-04-19 11:00 am W 15.0 17.1----29.97+0.01 57.0-----
2024-04-19 10:54 am W 13.0 17.1----29.97- 57.2-----
2024-04-19 10:48 am W 14.0 18.1----29.97- 57.0-----
2024-04-19 10:42 am W 15.0 18.1----29.98- 56.7-----
2024-04-19 10:36 am W 15.9 19.0----29.98- 56.5-----
2024-04-19 10:30 am W 17.1 19.0----29.98- 56.3-----
2024-04-19 10:24 am W 15.9 19.0----29.97- 55.9-----
2024-04-19 10:18 am W 17.1 19.0----29.97- 55.9-----
2024-04-19 10:12 am W 15.0 19.0----29.97- 55.9-----
2024-04-19 10:06 am W 15.0 19.0----29.97- 55.8-----
2024-04-19 10:00 am W 15.9 20.0----29.97+0.03 55.8-----
2024-04-19 09:54 am W 15.0 19.0----29.97- 55.4-----
2024-04-19 09:48 am W 15.9 20.0----29.97- 55.4-----
2024-04-19 09:42 am W 17.1 20.0----29.97- 54.9-----
2024-04-19 09:36 am W 17.1 18.1----29.97- 54.9-----
2024-04-19 09:24 am W 15.9 20.0----29.96- 55.0-----
2024-04-19 09:18 am W 15.0 20.0----29.96- 55.0-----
2024-04-19 09:12 am W 15.9 20.0----29.96- 55.2-----
2024-04-19 09:06 am W 15.0 19.0----29.96- 54.9-----
2024-04-19 09:00 am W 14.0 19.0----29.96+0.03 54.7-----
2024-04-19 08:54 am W 15.9 18.1----29.96- 54.7-----
2024-04-19 08:48 amWSW 15.9 19.0----29.96- 54.1-----
2024-04-19 08:42 amWSW 13.0 18.1----29.96- 54.5-----
2024-04-19 08:36 amWSW 12.0 18.1----29.96- 54.1-----
2024-04-19 08:30 amWSW 13.0 18.1----29.96- 54.1-----
2024-04-19 08:24 amWSW 14.0 19.0----29.96- 54.0-----
2024-04-19 08:18 amWSW 14.0 17.1----29.96- 53.8-----
2024-04-19 08:12 amWSW 13.0 19.0----29.96- 54.1-----
2024-04-19 08:06 amWSW 11.1 17.1----29.96- 54.0-----
2024-04-19 08:00 am SW 12.0 17.1----29.96+0.04 53.8-----
2024-04-19 07:54 amWSW 12.0 15.9----29.95- 54.1-----
2024-04-19 07:48 am SW 11.1 17.1----29.95- 54.0-----
2024-04-19 07:42 amWSW 13.0 15.9----29.95- 54.0-----
2024-04-19 07:36 am SW 13.0 17.1----29.95- 53.4-----
2024-04-19 07:30 amWSW 13.0 17.1----29.95- 53.4-----
2024-04-19 07:24 amWSW 12.0 15.0----29.95- 53.4-----
2024-04-19 07:18 am SW 12.0 15.9----29.95- 53.2-----
2024-04-19 07:12 amWSW 12.0 15.9----29.94- 53.6-----
2024-04-19 07:06 amWSW 15.0 17.1----29.94- 53.2-----
2024-04-19 07:00 amWSW 14.0 17.1----29.94+0.02 53.2-----
2024-04-19 06:54 amWSW 13.0 17.1----29.94- 53.2-----